Theta_e
314 314 314 314 314 314 314 314 314 314 315 315 316 316 315 316 315 314 309 314 316 325 324 312 314 319 320 319 321 320 309 305 306 305 306 311 310 315 319 317 320 323 325 328 335
313 313 313 313 313 314 314 314 314 315 315 316 316 316 315 315 312 308 316 319 320 323 314 310 310 313 315 316 317 314 309 308 311 312 310 310 311 312 314 316 318 322 326 327 333
313 313 313 313 314 313 314 314 315 316 316 316 316 315 315 315 309 311 317 317 321 319 313 312 312 310 310 315 316 314 309 314 314 314 314 311 312 314 312 313 318 319 324 327 328
312 312 312 313 313 313 313 314 315 316 316 316 316 316 315 315 298 316 316 317 321 316 311 311 310 307 304 307 313 310 314 314 315 316 315 311 313 312 313 314 320 324 327 326 325
312 312 312 312 312 312 313 314 315 315 315 316 316 316 314 308 303 311 314 319 315 311 307 306 307 307 304 306 310 309 311 314 316 316 316 316 313 314 315 318 319 319 323 324 325
312 311 311 311 312 312 313 314 314 314 315 316 317 315 313 303 310 313 313 313 312 311 308 307 305 308 306 306 306 310 311 312 314 315 315 312 313 314 316 320 319 319 319 322 324
312 311 311 311 311 312 312 314 313 313 315 317 318 315 309 304 312 314 314 311 312 310 306 310 308 305 306 305 309 307 304 307 310 313 312 314 308 310 317 319 319 320 321 323 325
311 311 310 310 311 311 312 312 313 314 317 318 316 316 305 311 314 312 312 310 312 312 310 311 310 306 303 305 303 301 304 299 306 309 311 310 303 311 316 318 318 320 321 322 325
311 311 310 310 311 311 311 312 315 316 316 316 315 312 303 312 307 309 311 307 309 310 310 310 308 304 303 297 295 297 294 299 301 308 308 308 305 312 315 315 315 318 320 321 322
312 311 311 310 310 311 311 311 316 315 317 317 313 307 307 301 306 308 311 309 306 306 304 304 304 300 300 296 289 293 294 297 298 304 306 305 306 310 313 314 314 317 319 321 321
311 310 309 310 310 310 311 315 310 308 310 303 302 300 301 306 308 306 309 306 306 304 298 302 297 295 298 299 299 297 295 294 299 304 304 303 305 307 312 311 313 316 318 319 321
310 310 309 310 310 310 312 308 306 308 300 306 304 303 305 306 300 303 308 302 301 297 300 298 294 298 299 298 296 296 294 294 298 301 302 303 303 307 311 311 312 314 316 318 321
310 310 310 310 310 310 310 308 313 312 301 300 303 302 302 304 299 300 304 302 299 296 297 294 296 299 297 296 294 294 293 293 294 298 301 301 299 303 308 311 313 314 316 318 319
310 310 310 309 307 312 310 312 314 313 297 296 299 301 303 303 299 304 305 302 299 295 296 296 299 297 295 294 295 291 296 295 294 293 290 300 291 301 305 307 310 312 314 316 319
310 310 309 307 313 310 311 315 314 310 288 296 298 306 303 300 299 300 306 302 296 296 297 294 295 295 295 294 296 293 296 295 294 292 293 294 292 298 305 303 307 311 313 316 318
310 309 308 312 316 312 315 315 311 295 284 293 298 297 297 299 298 300 300 303 302 296 298 296 301 299 297 299 297 298 294 294 294 292 286 292 292 294 299 304 307 311 313 315 316
309 308 309 314 309 315 316 309 295 289 296 293 294 296 296 295 295 296 295 295 292 289 289 294 295 299 299 295 298 295 292 284 282 283 283 293 292 295 303 306 308 308 311 314 315
307 306 311 315 316 315 312 301 288 292 293 297 296 296 293 294 294 294 294 292 296 293 291 287 286 294 299 295 293 293 291 284 278 280 284 293 287 295 304 307 309 310 312 314 313
305 315 315 317 316 314 305 293 292 293 295 293 295 292 292 294 294 294 294 292 294 295 288 288 288 296 297 299 297 293 289 294 287 287 283 287 294 301 305 305 307 309 310 311 313
310 310 312 315 316 310 300 293 294 297 297 296 290 292 290 292 292 293 292 295 292 295 297 293 286 294 296 299 297 295 297 286 289 280 278 286 289 292 299 302 306 308 309 311 314
310 307 311 313 312 305 294 294 295 299 298 294 293 292 293 291 293 291 292 295 297 295 297 294 290 290 294 293 292 292 291 292 291 288 282 280 287 300 302 303 306 309 310 311 312
309 302 311 310 301 301 295 294 293 297 299 296 296 294 293 293 291 291 291 294 297 296 291 296 292 287 289 295 297 295 293 292 285 284 289 287 287 300 305 307 307 309 309 311 313
303 304 312 309 296 297 296 294 296 296 297 295 294 296 296 292 288 292 293 297 298 295 293 295 290 284 286 291 293 290 292 294 293 292 287 283 288 302 306 308 309 308 309 309 311
303 299 305 309 304 296 295 294 293 298 297 297 295 297 295 292 293 291 292 296 298 297 298 297 292 286 283 287 288 286 290 292 293 287 287 289 290 294 297 304 306 306 308 310 309
305 300 300 296 299 298 298 296 292 292 297 297 295 294 292 290 291 291 294 294 298 298 298 294 288 290 291 292 292 291 290 291 290 291 286 290 290 294 296 297 304 306 306 307 308
299 297 299 297 298 297 294 295 293 294 295 294 293 295 293 289 291 290 292 293 293 298 295 295 288 291 288 291 291 289 291 292 292 292 292 292 291 298 300 303 303 304 305 305 307
305 304 297 297 296 295 296 295 294 296 296 297 296 295 293 294 298 298 300 300 298 295 293 290 289 289 284 290 289 285 290 292 294 294 293 289 295 299 300 301 302 304 305 306 307
Wind_Speed
16 16 16 16 16 16 16 15 15 15 15 16 17 16 16 16 21 21 9 10 11 16 17 14 13 12 14 20 21 16 17 18 22 20 18 12 16 19 13 12 12 11 10 9 2
16 17 17 17 17 17 16 16 16 15 15 16 16 17 16 16 18 14 10 8 12 17 12 13 15 14 15 17 19 20 17 25 20 18 12 12 18 21 17 14 17 11 7 3 7
17 17 18 18 17 17 17 17 17 16 16 16 17 16 15 16 14 8 6 5 12 15 15 10 15 20 22 20 22 24 27 24 20 17 13 17 18 20 21 18 17 17 15 12 6
17 17 17 17 18 18 18 17 17 17 17 17 16 16 16 15 2 11 4 7 11 13 12 13 13 20 25 27 25 27 31 26 26 25 15 18 17 22 24 21 18 15 13 10 6
17 18 18 18 19 19 19 19 19 18 17 15 14 13 13 10 8 9 6 11 12 9 9 11 15 17 25 25 26 33 30 27 26 24 25 19 24 23 24 22 22 21 16 14 14
17 17 18 19 18 18 18 17 16 18 18 15 13 10 10 9 4 2 5 7 8 10 8 9 12 16 21 25 28 27 28 31 29 27 26 23 26 23 26 23 23 23 21 19 19
17 18 19 19 19 18 18 17 16 18 17 12 11 10 12 8 3 5 7 5 4 6 9 10 9 16 12 17 25 26 30 28 28 30 32 24 26 33 27 26 26 23 20 21 22
18 18 19 19 19 19 19 19 20 16 12 8 7 12 4 4 6 5 7 8 3 6 9 11 12 16 21 21 26 22 22 27 33 30 28 23 33 39 29 26 26 27 23 22 22
18 18 20 21 20 20 19 20 16 5 4 6 10 9 4 8 2 9 10 8 9 9 6 8 14 16 16 17 19 20 25 29 30 31 30 29 36 33 31 24 25 24 25 24 24
19 19 19 21 21 21 21 21 3 7 10 9 8 8 5 6 10 10 6 9 12 12 14 16 13 15 14 14 21 22 27 30 31 28 28 30 36 32 29 26 27 25 25 22 24
23 22 22 20 20 19 17 6 8 9 13 11 8 6 2 8 6 6 5 9 6 11 13 10 15 16 18 19 23 23 27 34 31 24 29 30 32 35 30 26 27 25 22 24 24
25 23 22 19 17 18 12 6 7 7 9 9 8 7 5 4 7 5 0 8 10 13 14 14 15 17 17 21 25 24 26 30 29 31 28 25 30 33 28 28 27 29 26 21 19
23 23 21 17 14 10 5 7 6 8 8 4 4 7 3 5 8 11 7 8 13 16 14 14 16 19 20 19 19 22 25 25 29 26 28 31 28 33 31 27 26 28 30 29 28
24 23 19 15 8 3 2 4 8 6 8 11 7 4 8 6 13 6 5 7 14 17 18 16 14 11 15 22 22 24 22 25 24 24 23 28 23 28 27 28 29 26 27 28 25
24 23 16 8 10 2 7 8 9 6 6 6 5 7 6 11 7 3 6 9 15 15 16 18 19 20 20 20 19 21 20 24 26 24 28 29 24 21 23 27 26 26 25 22 21
25 22 13 7 5 5 7 6 6 9 2 4 1 4 10 10 7 5 9 12 17 17 16 21 19 20 19 18 19 18 21 26 24 22 23 30 29 25 22 20 23 19 19 18 17
26 20 9 8 7 8 7 7 8 7 5 3 6 10 13 12 6 3 12 12 11 11 15 22 17 14 10 18 17 17 20 15 17 18 22 26 28 22 21 28 23 19 22 21 16
26 15 7 4 5 7 8 10 5 7 8 11 10 15 9 7 4 7 12 12 10 4 10 10 16 12 14 13 17 18 18 14 18 18 18 24 25 22 28 32 8 8 12 7 6
28 7 8 4 6 6 10 7 7 10 9 10 14 8 3 6 6 12 9 9 7 10 8 14 13 21 21 12 12 15 19 22 24 21 13 14 26 28 23 32 24 20 8 8 3
8 5 3 7 5 7 9 7 5 4 7 9 13 5 12 14 12 12 9 5 6 4 10 14 20 17 10 21 15 15 18 11 7 18 19 16 22 18 23 13 16 13 8 4 5
7 6 6 7 6 8 5 7 6 4 6 8 11 15 14 14 13 16 14 12 10 10 14 16 19 20 16 14 16 9 16 17 12 15 14 11 13 19 26 25 18 17 10 3 5
5 4 5 6 5 4 6 7 2 6 4 8 7 8 11 12 14 17 15 12 8 14 18 19 15 18 22 23 11 7 13 6 5 12 15 16 17 23 22 5 27 13 8 4 7
7 3 5 6 5 5 7 9 4 8 7 5 7 9 11 13 8 12 16 13 12 12 7 8 8 12 17 5 22 10 18 8 12 17 18 13 11 14 13 19 14 10 5 4 9
6 5 2 1 3 5 9 5 4 3 11 7 8 15 9 12 13 11 17 9 6 13 14 8 15 17 18 25 11 10 17 14 15 10 15 21 19 11 28 18 12 3 6 7 12
4 3 4 5 5 9 9 10 10 5 5 6 7 6 9 9 17 19 14 21 18 13 11 5 12 19 20 22 25 21 16 16 19 18 19 21 18 14 15 26 25 11 10 14 14
7 7 9 10 7 9 3 7 8 8 8 13 12 10 10 15 16 24 21 19 11 13 7 5 10 14 17 21 21 22 20 19 19 22 24 25 23 18 14 20 20 14 15 14 10
3 1 5 8 5 5 8 7 10 13 9 7 9 13 16 16 17 19 21 21 17 12 9 5 9 12 15 14 14 13 11 16 19 17 16 25 21 20 19 16 14 13 13 12 11
Wind_Direction
344 342 338 336 334 331 328 325 320 315 313 310 311 314 317 315 302 263 254 30 355 327 314 270 254 241 230 242 233 238 254 250 251 249 261 275 280 270 254 263 254 250 264 28 328
343 340 338 336 335 333 328 321 317 314 308 306 306 309 312 317 297 264 82 17 328 309 283 246 244 224 231 231 233 230 239 241 260 268 276 255 262 263 253 216 241 204 200 195 172
342 340 338 336 333 330 326 323 320 315 309 305 306 306 306 305 262 88 91 305 299 292 286 278 275 258 233 237 226 233 243 255 249 258 285 262 270 275 266 246 234 220 201 193 148
341 338 336 334 331 329 327 325 321 314 311 308 307 302 305 278 343 90 145 272 286 279 277 266 243 244 242 238 238 244 241 249 256 270 255 257 272 269 274 267 247 233 213 195 186
341 339 337 334 332 329 326 325 322 315 311 304 301 299 290 225 62 117 230 230 274 308 277 273 263 247 247 249 246 241 247 247 249 260 260 259 256 260 259 262 268 263 252 219 246
337 338 336 333 329 326 322 319 316 314 308 301 295 297 257 257 41 287 309 288 275 307 314 279 273 275 280 264 252 257 252 250 250 243 253 247 258 263 255 261 260 259 249 247 242
332 332 332 330 325 322 318 314 312 306 299 291 279 267 264 51 298 304 262 302 318 295 290 304 296 272 274 256 254 267 269 267 258 245 243 246 256 251 249 254 257 257 247 248 246
334 331 330 327 324 320 318 314 310 298 288 263 250 261 292 101 336 281 332 309 230 240 263 282 283 276 269 269 276 281 263 249 244 247 244 236 247 251 251 247 243 253 249 245 238
333 330 329 327 323 319 316 310 306 247 214 204 228 234 158 137 305 340 318 323 307 286 271 267 273 268 266 248 255 245 252 248 252 240 241 235 245 250 254 245 255 240 246 244 243
336 331 327 325 321 318 316 302 245 190 210 216 260 246 207 356 342 312 326 308 308 304 283 235 255 248 245 236 248 255 244 246 255 259 233 237 238 243 251 255 244 254 248 245 239
337 331 327 320 315 311 313 208 204 196 221 303 322 294 283 348 308 309 359 319 282 282 278 285 269 256 267 267 263 271 272 275 273 265 244 256 240 243 237 236 255 257 240 228 241
338 333 325 316 309 302 288 352 39 346 299 259 249 257 260 314 295 320 116 295 313 300 298 270 254 264 272 274 279 277 276 272 272 267 275 272 254 254 244 232 232 247 254 244 245
335 332 325 316 311 283 327 35 337 332 259 93 190 228 230 250 287 296 290 285 292 296 288 292 299 301 284 273 264 267 269 274 280 281 259 261 256 261 258 249 230 237 244 247 248
333 334 328 320 286 358 129 350 316 335 265 133 192 161 223 285 259 276 315 295 288 292 296 289 289 267 275 269 258 265 269 277 272 270 260 248 257 250 245 250 244 237 240 245 240
334 333 327 297 318 341 4 319 332 238 249 120 141 59 260 280 317 191 195 258 289 304 295 289 292 285 280 263 262 273 278 275 263 261 259 256 256 248 234 244 237 238 246 249 251
335 331 318 222 240 14 315 327 240 230 80 162 269 263 297 299 266 274 265 261 249 264 286 284 311 266 277 276 276 288 281 277 255 253 242 243 245 243 243 245 231 233 231 234 245
333 326 276 301 357 343 317 251 242 285 120 78 340 318 307 283 286 267 305 295 304 325 313 319 302 300 338 290 263 253 269 270 255 244 246 239 245 243 253 255 269 280 243 233 232
327 323 201 315 330 327 278 254 299 70 14 359 315 296 270 3 331 298 291 293 317 274 305 303 313 341 356 303 281 277 261 267 263 264 252 242 243 243 234 253 222 263 265 143 192
314 201 233 88 313 295 271 257 25 15 1 331 303 291 213 223 277 293 299 326 333 339 317 307 310 312 291 271 271 283 261 250 266 257 274 286 287 232 240 219 239 227 226 206 192
312 257 89 341 309 274 263 289 328 31 324 313 301 320 320 328 313 318 323 338 287 290 294 294 296 300 332 332 260 240 261 294 258 269 260 269 256 257 214 221 213 195 184 144 245
261 249 68 312 275 243 288 353 334 30 326 325 326 304 311 316 313 313 304 296 357 336 315 300 282 289 281 218 260 238 243 243 259 249 273 298 284 225 209 195 222 163 133 138 310
292 263 57 306 253 270 294 10 13 278 306 298 292 304 293 323 317 306 298 312 359 323 308 318 306 280 280 283 250 291 271 275 222 271 280 250 265 309 275 195 194 123 129 37 345
314 306 119 271 314 357 343 299 235 295 299 293 270 285 300 300 300 293 313 324 319 305 329 347 293 309 282 267 14 1 325 231 249 280 253 291 288 287 100 101 96 103 85 320 338
301 317 119 128 144 308 339 290 293 325 292 294 292 284 299 283 281 276 290 305 313 293 292 294 266 258 275 295 154 234 239 257 264 269 257 257 269 270 294 130 135 131 11 302 305
346 48 26 305 320 329 298 288 283 290 264 296 281 278 306 306 311 287 307 318 310 306 282 203 268 273 273 279 283 279 280 277 270 270 273 275 275 261 275 310 310 7 316 292 298
332 342 347 295 276 288 283 286 304 309 298 295 272 289 295 285 286 290 298 293 299 299 296 273 267 288 287 285 285 287 278 258 256 268 266 274 275 276 266 254 284 305 288 289 304
13 350 323 286 273 281 303 325 319 314 301 287 295 289 285 284 285 281 283 284 266 244 274 260 279 291 280 299 320 278 310 337 335 272 305 291 293 297 287 266 272 273 287 289 286